Погода в Калайкасах

Россия / Чувашская Республика     56°03′28″N   46°52′53″E
темп.,
°C
ветер,
м/с
пор.,
м/с
влажн.,
%
обл.,
%
осадки,
мм/ч
давл.,
гПа
погр.,
м
7 марта, вс
вс700:00−15зюз349666 0.0 101229
03:00−16зюз349862 0.0 101136
06:00−16зюз349883 0.1 101050
09:00−13юз479686 0.1 1009210
12:00−9ююз599293 0.0 1007444
15:00−8ю7128696 0.0 1003737
18:00−7ю81494100 0.4 1000886
21:00−6ю81494100 1.5 996871
8 марта, пн
пн800:00−6ююз61394100 0.8 993614
03:00−5ю51096100 1.4 990483
06:00−6зсз8148999 1.2 991665
09:00−10зюз7138662 1.2 994416
12:00−6зюз7108691 0.0 997866
15:00−6зюз588595 0.0 997711
18:00−9з2392100 0.0 99834
21:00−12зсз449380 0.0 100174
9 марта, вт
вт900:00−13зсз479640 0.0 1004127
03:00−16зсз449862 0.1 100679
06:00−18зсз3310094 0.0 100834
09:00−16сз349697 0.1 1010164
12:00−13сз2390100 0.0 1011326
15:00−12сз3490100 0.1 1011482
18:00−13с3696100 0.1 1012167
21:00−15ссз489698 0.3 1014254
10 марта, ср
ср1000:00−19ссз479995 0.1 1015140
03:00−21ссз489996 0.1 1016207
06:00−24ссз5998100 0.1 1017235
09:00−24ссз5896100 0.1 1019298
12:00−21ссз589497 0.0 1020464
15:00−19ссз598998 0.0 1022585
18:00−22ссз449584 0.0 102377
21:00−24сз449646 0.0 102471
11 марта, чт
чт1100:00−25сз34999 0.0 102559
03:00−25зсз479911 0.0 102595
06:00−25зсз499943 0.0 1025140
09:00−20зсз599670 0.1 1025309
12:00−15зсз5893100 0.1 1025390
15:00−11сз61092100 0.1 1026508
18:00−12сз499495 0.0 1026185
21:00−13сз4109548 0.0 1028153